Tracking 28790 objects as of 19-Apr-2024
HD Live streaming from Space Station
objects crossing your sky now

SL-16 DEB

Track SL-16 DEB now!
10-day predictions


NORAD ID: 43369
Int'l Code: 2001-056N
Perigee: 762.8 km
Apogee: 886.6 km
Inclination: 99.3 °
Period: 101.2 minutes
Semi major axis: 7195 km
RCS: Unknown
Launch date: December 10, 2001
Source: Commonwealth of Independent States (former USSR) (CIS)
Launch site: TYURATAM MISSILE AND SPACE COMPLEX (TTMTR)

Note: This is SATELLITE DEBRIS
Your satellite tracking list
Your tracking list is empty




NASA's NSSDC Master Catalog

Two Line Element Set (TLE):
1 43369U 01056N   24103.39943466  .00004330  00000-0  18957-2 0  9993
2 43369  99.3317 304.6481 0086025  82.4792  37.0154 14.22309310517376
Source of the keplerian elements: AFSPC